Regional Weather Roundup
Issued by NWS

Home | Current Version | Previous Version | Text Only | Print | Product List | Glossary On
Versions: 1 2 3 4 5 6 7 8 9 10 11 12 13 14 15 16 17 18 19 20 21 22 23 24 25 26 27 28 29 30 31 32 33 34 35 36 37 38 39 40 41 42 43 44 45 46 47 48 49 50
000
ASUS45 KSLC 291910
RWRUT

UTAH REGIONAL WEATHER ROUNDUP
NATIONAL WEATHER SERVICE SALT LAKE CITY UT
100 PM MDT SAT AUG 29 2015

UTZ001>011-023>025-292000-

NORTHERN UTAH

CITY           SKY/WX    TMP DP  RH WIND       PRES   REMARKS
BRIGHAM CITY   CLOUDY    91  36  14 SW10G16   30.05F
HILL AFB       MOSUNNY   91  44  19 S17G24    30.08F
LOGAN          SUNNY     89  40  17 S6        30.05F
OGDEN          PTSUNNY   93  41  16 S18G24    30.05F
PROVO AIRPORT  PTSUNNY   90  45  20 VRB5      30.10F
SALT LAKE CITY PTSUNNY   93  40  15 S22G28    30.04F
VERNAL         SUNNY     82  38  20 SE6       30.21F
WENDOVER       MOSUNNY   90  43  19 E8        30.01F
HEBER CITY     SUNNY     90  37  15 SW16      30.17F
WEST JORDAN    SUNNY     91  45  19 SE15G22   30.09F

$$

UTZ012>022-026-027-292000-

SOUTHERN/CENTRAL UTAH

CITY           SKY/WX    TMP DP  RH WIND       PRES   REMARKS
BLANDING       SUNNY     83  44  24 S10       30.36F
BRYCE CANYON   MOSUNNY   77  41  27 SE12      30.40F
CEDAR CITY     MOSUNNY   89  38  16 SW13G25   30.19F
DELTA          MOSUNNY   92  36  13 SW16G25   30.10F
HANKSVILLE     SUNNY     86  36  16 SE3       30.17F
MILFORD        SUNNY     94  42  16 SW16G23   30.12F HX  90
MOAB/CYNLANDS  SUNNY     90  40  17 E8        30.15F
PRICE          SUNNY     83  37  19 SW9       30.26F
ST GEORGE      CLEAR     97  52  21 W3        30.00F HX  94
KANAB          SUNNY     90  48  24 S10       30.22F

$$

REGIONAL REPORTS     COLORADO/ARIZONA

CITY           SKY/WX    TMP DP  RH WIND       PRES   REMARKS
CRAIG, CO      SUNNY     85  30  13 N7        30.28F
GRAND JUNCTION SUNNY     84  45  25 SE6       30.19F
RIFLE          SUNNY     82  43  25 VRB3      30.24F
MONTROSE       SUNNY     84  46  26 N8        30.27F
CORTEZ         MOSUNNY   84  45  25 SE8       30.28F
PAGE, AZ       SUNNY     89  44  20 MISG      30.14F
GRAND CANYON   MOSUNNY   84  40  21 VRB5      30.32F
KINGMAN        MOSUNNY   93  50  23 SE13      30.05F HX  90
FLAGSTAFF      PTSUNNY   79  44  28 MISG      30.36F

$$

REGIONAL REPORTS    NEVADA/IDAHO/WYOMING

CITY           SKY/WX    TMP DP  RH WIND       PRES   REMARKS
LAS VEGAS, NV  MOSUNNY  103  46  14 SE10      29.88F HX  99
ELY            PTSUNNY   84  42  22 S29G38    30.19F
ELKO           MOSUNNY   88  40  18 W18G28    30.02F
POCATELLO, ID  SUNNY     93  41  16 SW20G29   30.00F
EVANSTON, WY   MOSUNNY   83  36  18 SW17G26   30.28F
ROCK SPRINGS   MOSUNNY   84  31  14 W12       30.27F
KEMMERER       PTSUNNY   82  30  15 SW12G21   30.30F

$$


USA.gov is the U.S. government's official web portal to all federal, state and local government web resources and services.